BAW834 EGLL-EIDW

Flight info

Callsign BAW834
Flight time 1h 9m
Altitude 34000
Route CPT L9 DIDZA N14 BIBPE DCT OKTAD DCT MEDOG DCT KRAGY DCT PEMOB DCT LEMGU M17 VATRY VATRY4L
Aircraft A21N/M-SDE3FGIJ1LRWXYZ/SB1G1

Departure

Time 2026-05-04 19:11
Airport London Heathrow Airport (EGLL)

Arrival

Time 2026-05-04 20:21
Airport Dublin Airport (EIDW)
Time Latitude Longitude Altitude Speed Heading
2026-05-04 18:54 51.47187 -0.48595 92 ft 0 kts 269°
2026-05-04 19:00 51.47187 -0.48585 92 ft 4 kts 269°
2026-05-04 19:00 51.47187 -0.48549 92 ft 2 kts 269°
2026-05-04 19:00 51.47189 -0.48508 95 ft 4 kts 253°
2026-05-04 19:00 51.47201 -0.48478 92 ft 4 kts 199°
2026-05-04 19:01 51.47221 -0.48475 92 ft 1 kts 179°
2026-05-04 19:04 51.47207 -0.48475 94 ft 5 kts 179°
2026-05-04 19:04 51.47158 -0.48475 94 ft 9 kts 180°
2026-05-04 19:04 51.47087 -0.48475 94 ft 11 kts 180°
2026-05-04 19:05 51.47001 -0.48475 94 ft 13 kts 179°
2026-05-04 19:05 51.46908 -0.48473 93 ft 12 kts 179°
2026-05-04 19:05 51.46819 -0.48473 92 ft 12 kts 180°
2026-05-04 19:05 51.46740 -0.48473 92 ft 8 kts 179°
2026-05-04 19:06 51.46678 -0.48472 92 ft 10 kts 179°
2026-05-04 19:06 51.46625 -0.48471 93 ft 6 kts 179°
2026-05-04 19:06 51.46604 -0.48470 93 ft 2 kts 180°
2026-05-04 19:06 51.46599 -0.48470 93 ft 0 kts 180°
2026-05-04 19:09 51.46586 -0.48471 93 ft 4 kts 180°
2026-05-04 19:10 51.46538 -0.48471 94 ft 9 kts 180°
2026-05-04 19:10 51.46483 -0.48426 94 ft 9 kts 114°
2026-05-04 19:10 51.46478 -0.48313 94 ft 11 kts 90°
2026-05-04 19:10 51.46478 -0.48144 93 ft 33 kts 90°
2026-05-04 19:11 51.46480 -0.47336 92 ft 107 kts 88°
2026-05-04 19:11 51.46486 -0.45826 93 ft 161 kts 89°
2026-05-04 19:11 51.46477 -0.43949 525 ft 168 kts 88°
2026-05-04 19:11 51.46520 -0.42076 1182 ft 169 kts 88°
2026-05-04 19:12 51.46255 -0.40147 1628 ft 191 kts 118°
2026-05-04 19:12 51.43690 -0.38461 2670 ft 237 kts 193°
2026-05-04 19:12 51.42199 -0.39820 3101 ft 261 kts 229°
2026-05-04 19:13 51.41169 -0.42263 3893 ft 268 kts 240°
2026-05-04 19:13 51.40317 -0.44935 4798 ft 272 kts 254°
2026-05-04 19:13 51.39986 -0.47912 5482 ft 272 kts 269°
2026-05-04 19:13 51.40178 -0.50911 5819 ft 272 kts 282°
2026-05-04 19:14 51.40561 -0.53881 5942 ft 272 kts 283°
2026-05-04 19:14 51.40952 -0.56837 5985 ft 272 kts 283°
2026-05-04 19:14 51.41449 -0.59708 5985 ft 270 kts 297°
2026-05-04 19:14 51.42595 -0.62058 5985 ft 269 kts 322°
2026-05-04 19:15 51.44199 -0.63589 5993 ft 269 kts 334°
2026-05-04 19:15 51.45892 -0.64872 5996 ft 269 kts 335°
2026-05-04 19:15 51.47540 -0.66276 5986 ft 269 kts 323°
2026-05-04 19:15 51.48734 -0.68551 6342 ft 271 kts 300°
2026-05-04 19:16 51.49594 -0.71272 7148 ft 274 kts 296°
2026-05-04 19:16 51.50418 -0.74053 7707 ft 278 kts 296°
2026-05-04 19:16 51.51247 -0.76861 7934 ft 279 kts 296°
2026-05-04 19:16 51.52079 -0.79678 8012 ft 279 kts 296°
2026-05-04 19:17 51.52687 -0.82628 8023 ft 280 kts 276°
2026-05-04 19:17 51.52554 -0.85734 8032 ft 281 kts 259°
2026-05-04 19:17 51.52101 -0.88784 8029 ft 281 kts 256°
2026-05-04 19:17 51.51606 -0.91813 8024 ft 281 kts 256°
2026-05-04 19:18 51.51113 -0.94846 8021 ft 281 kts 258°
2026-05-04 19:18 51.51042 -0.97947 8416 ft 280 kts 280°
2026-05-04 19:18 51.51642 -1.00929 9278 ft 284 kts 294°
2026-05-04 19:18 51.52470 -1.03837 10188 ft 287 kts 295°
2026-05-04 19:19 51.53339 -1.06846 10680 ft 308 kts 295°
2026-05-04 19:19 51.54264 -1.10099 11030 ft 331 kts 294°
2026-05-04 19:19 51.55244 -1.13563 11517 ft 347 kts 294°
2026-05-04 19:19 51.56247 -1.17127 12270 ft 352 kts 294°
2026-05-04 19:20 51.57262 -1.20733 13043 ft 357 kts 294°
2026-05-04 19:20 51.58282 -1.24390 13797 ft 361 kts 293°
2026-05-04 19:20 51.59304 -1.28107 14553 ft 365 kts 293°
2026-05-04 19:20 51.60336 -1.31866 15270 ft 369 kts 293°
2026-05-04 19:21 51.61381 -1.35656 15967 ft 373 kts 293°
2026-05-04 19:21 51.62440 -1.39503 16643 ft 377 kts 293°
2026-05-04 19:21 51.63511 -1.43384 17291 ft 381 kts 293°
2026-05-04 19:21 51.64591 -1.47310 17922 ft 385 kts 292°
2026-05-04 19:22 51.65675 -1.51281 18541 ft 389 kts 292°
2026-05-04 19:22 51.66771 -1.55282 19149 ft 392 kts 292°
2026-05-04 19:22 51.67879 -1.59309 19737 ft 394 kts 292°
2026-05-04 19:22 51.68976 -1.63319 20307 ft 398 kts 292°
2026-05-04 19:23 51.70037 -1.67448 20871 ft 399 kts 287°
2026-05-04 19:23 51.70681 -1.71799 21419 ft 399 kts 276°
2026-05-04 19:23 51.71024 -1.76243 21977 ft 401 kts 274°
2026-05-04 19:23 51.71326 -1.80727 22503 ft 404 kts 274°
2026-05-04 19:24 51.71671 -1.85240 23043 ft 407 kts 277°
2026-05-04 19:24 51.72282 -1.89731 23573 ft 411 kts 281°
2026-05-04 19:24 51.72951 -1.94223 24083 ft 413 kts 281°
2026-05-04 19:24 51.73630 -1.98747 24583 ft 416 kts 281°
2026-05-04 19:25 51.74310 -2.03293 25071 ft 419 kts 281°
2026-05-04 19:25 51.74991 -2.07889 25522 ft 422 kts 281°
2026-05-04 19:25 51.75673 -2.12518 25955 ft 425 kts 281°
2026-05-04 19:25 51.76356 -2.17166 26383 ft 427 kts 281°
2026-05-04 19:26 51.77044 -2.21863 26803 ft 430 kts 281°
2026-05-04 19:26 51.77497 -2.24982 27071 ft 432 kts 281°
2026-05-04 19:26 51.78181 -2.29721 27452 ft 435 kts 281°
2026-05-04 19:26 51.79093 -2.36050 27962 ft 438 kts 281°
2026-05-04 19:27 51.79787 -2.40846 28318 ft 440 kts 281°
2026-05-04 19:27 51.80259 -2.44108 28557 ft 442 kts 281°
2026-05-04 19:27 51.80957 -2.48963 28912 ft 444 kts 281°
2026-05-04 19:27 51.81658 -2.53830 29344 ft 444 kts 281°
2026-05-04 19:28 51.82346 -2.58690 29779 ft 443 kts 280°
2026-05-04 19:28 51.83005 -2.63559 30199 ft 443 kts 280°
2026-05-04 19:28 51.83654 -2.68413 30605 ft 443 kts 280°
2026-05-04 19:28 51.84307 -2.73223 30971 ft 443 kts 281°
2026-05-04 19:29 51.84965 -2.78093 31336 ft 443 kts 281°
2026-05-04 19:29 51.85623 -2.82972 31693 ft 444 kts 281°
2026-05-04 19:29 51.86274 -2.87849 32038 ft 444 kts 280°
2026-05-04 19:29 51.86912 -2.92738 32384 ft 444 kts 281°
2026-05-04 19:30 51.87554 -2.97620 32706 ft 444 kts 281°
2026-05-04 19:30 51.88202 -3.02522 33045 ft 445 kts 281°
2026-05-04 19:30 51.88852 -3.07418 33377 ft 445 kts 281°
2026-05-04 19:30 51.89500 -3.12315 33674 ft 445 kts 281°
2026-05-04 19:31 51.90143 -3.17205 33954 ft 445 kts 281°
2026-05-04 19:31 51.91426 -3.27026 34054 ft 445 kts 281°
2026-05-04 19:32 51.92694 -3.36834 34033 ft 445 kts 281°
2026-05-04 19:32 51.93961 -3.46602 34035 ft 446 kts 281°
2026-05-04 19:33 51.95219 -3.56446 34030 ft 446 kts 281°
2026-05-04 19:33 51.96465 -3.66317 34031 ft 446 kts 282°
2026-05-04 19:34 51.97708 -3.76179 34028 ft 446 kts 281°
2026-05-04 19:34 51.98948 -3.86051 34033 ft 446 kts 281°
2026-05-04 19:35 52.00173 -3.95927 34030 ft 446 kts 281°
2026-05-04 19:35 52.01389 -4.05806 34023 ft 446 kts 281°
2026-05-04 19:36 52.02590 -4.15649 34031 ft 446 kts 281°
2026-05-04 19:36 52.03789 -4.25534 34033 ft 446 kts 281°
2026-05-04 19:37 52.04972 -4.35412 33851 ft 441 kts 281°
2026-05-04 19:37 52.05556 -4.40321 33002 ft 444 kts 281°
2026-05-04 19:37 52.06149 -4.45262 32256 ft 447 kts 281°
2026-05-04 19:37 52.06741 -4.50231 31580 ft 448 kts 281°
2026-05-04 19:38 52.07333 -4.55202 30975 ft 447 kts 281°
2026-05-04 19:38 52.07922 -4.60150 30393 ft 445 kts 281°
2026-05-04 19:38 52.08502 -4.65079 29840 ft 443 kts 281°
2026-05-04 19:38 52.09070 -4.69924 29269 ft 441 kts 281°
2026-05-04 19:39 52.09640 -4.74815 28690 ft 439 kts 281°
2026-05-04 19:39 52.10205 -4.79678 28127 ft 436 kts 281°
2026-05-04 19:39 52.10767 -4.84514 27570 ft 434 kts 281°
2026-05-04 19:39 52.11324 -4.89325 26993 ft 432 kts 280°
2026-05-04 19:40 52.11870 -4.94113 26407 ft 430 kts 280°
2026-05-04 19:40 52.12410 -4.98892 25823 ft 427 kts 280°
2026-05-04 19:40 52.12945 -5.03635 25267 ft 425 kts 280°
2026-05-04 19:40 52.13490 -5.08346 24700 ft 422 kts 282°
2026-05-04 19:41 52.14419 -5.12862 24112 ft 420 kts 297°
2026-05-04 19:41 52.16076 -5.16728 23550 ft 416 kts 314°
2026-05-04 19:41 52.18342 -5.19593 23002 ft 412 kts 331°
2026-05-04 19:41 52.20883 -5.21702 22463 ft 409 kts 335°
2026-05-04 19:42 52.23436 -5.23711 21903 ft 407 kts 335°
2026-05-04 19:42 52.25978 -5.25730 21335 ft 406 kts 334°
2026-05-04 19:42 52.28464 -5.27756 20782 ft 402 kts 334°
2026-05-04 19:42 52.30979 -5.29813 20245 ft 396 kts 334°
2026-05-04 19:43 52.33393 -5.31793 19744 ft 391 kts 334°
2026-05-04 19:43 52.35804 -5.33776 19253 ft 385 kts 334°
2026-05-04 19:43 52.38180 -5.35726 18781 ft 379 kts 334°
2026-05-04 19:43 52.40517 -5.37661 18330 ft 373 kts 334°
2026-05-04 19:44 52.42809 -5.39556 17891 ft 367 kts 334°
2026-05-04 19:44 52.45078 -5.41425 17452 ft 365 kts 334°
2026-05-04 19:44 52.47348 -5.43306 17004 ft 366 kts 334°
2026-05-04 19:44 52.49622 -5.45188 16561 ft 366 kts 334°
2026-05-04 19:45 52.51888 -5.47079 16121 ft 366 kts 334°
2026-05-04 19:45 52.54159 -5.48961 15678 ft 365 kts 334°
2026-05-04 19:45 52.56496 -5.50584 15245 ft 364 kts 342°
2026-05-04 19:45 52.58908 -5.51831 14828 ft 363 kts 343°
2026-05-04 19:46 52.61322 -5.53050 14389 ft 362 kts 343°
2026-05-04 19:46 52.63732 -5.54276 13947 ft 361 kts 343°
2026-05-04 19:46 52.66108 -5.55491 13509 ft 355 kts 343°
2026-05-04 19:46 52.68445 -5.56690 13106 ft 348 kts 343°
2026-05-04 19:47 52.70734 -5.57866 12718 ft 342 kts 342°
2026-05-04 19:47 52.72984 -5.59032 12324 ft 336 kts 342°
2026-05-04 19:47 52.75174 -5.60170 11922 ft 334 kts 342°
2026-05-04 19:47 52.77396 -5.61328 11520 ft 335 kts 342°
2026-05-04 19:48 52.79621 -5.62488 11140 ft 334 kts 342°
2026-05-04 19:48 52.81822 -5.63637 10806 ft 326 kts 342°
2026-05-04 19:48 52.83936 -5.64739 10425 ft 312 kts 342°
2026-05-04 19:48 52.85958 -5.65794 10133 ft 297 kts 342°
2026-05-04 19:49 52.87885 -5.66803 9979 ft 287 kts 342°
2026-05-04 19:49 52.89791 -5.67804 9817 ft 287 kts 342°
2026-05-04 19:49 52.91679 -5.68795 9563 ft 282 kts 342°
2026-05-04 19:49 52.93537 -5.69770 9274 ft 278 kts 342°
2026-05-04 19:50 52.95370 -5.70733 8973 ft 275 kts 341°
2026-05-04 19:50 52.97184 -5.71685 8672 ft 272 kts 341°
2026-05-04 19:50 52.98954 -5.72615 8378 ft 269 kts 342°
2026-05-04 19:50 53.00747 -5.73559 8121 ft 275 kts 341°
2026-05-04 19:51 53.02575 -5.74525 8058 ft 276 kts 341°
2026-05-04 19:51 53.04403 -5.75488 8059 ft 276 kts 341°
2026-05-04 19:51 53.06232 -5.76452 8071 ft 276 kts 341°
2026-05-04 19:51 53.08042 -5.77409 8075 ft 276 kts 341°
2026-05-04 19:52 53.09873 -5.78376 8076 ft 276 kts 341°
2026-05-04 19:52 53.11705 -5.79320 8075 ft 276 kts 345°
2026-05-04 19:52 53.13614 -5.79434 8064 ft 279 kts 13°
2026-05-04 19:52 53.15311 -5.77904 8068 ft 282 kts 43°
2026-05-04 19:53 53.16404 -5.75183 8083 ft 284 kts 62°
2026-05-04 19:53 53.17276 -5.72232 8053 ft 281 kts 62°
2026-05-04 19:53 53.18170 -5.69299 7513 ft 286 kts 61°
2026-05-04 19:53 53.19106 -5.66367 7152 ft 284 kts 60°
2026-05-04 19:54 53.20177 -5.63715 7066 ft 268 kts 43°
2026-05-04 19:54 53.21557 -5.61837 7056 ft 251 kts 34°
2026-05-04 19:54 53.22929 -5.60169 7056 ft 240 kts 34°
2026-05-04 19:54 53.24280 -5.58534 7065 ft 240 kts 34°
2026-05-04 19:55 53.25627 -5.56892 7073 ft 240 kts 34°
2026-05-04 19:55 53.26971 -5.55243 7077 ft 240 kts 34°
2026-05-04 19:55 53.28316 -5.53593 7078 ft 239 kts 32°
2026-05-04 19:55 53.29796 -5.52378 7076 ft 237 kts 14°
2026-05-04 19:56 53.31399 -5.51763 7081 ft 236 kts 10°
2026-05-04 19:56 53.33005 -5.51206 7080 ft 236 kts 10°
2026-05-04 19:56 53.34617 -5.50636 7080 ft 236 kts 10°
2026-05-04 19:56 53.36226 -5.50052 7081 ft 238 kts 10°
2026-05-04 19:57 53.37852 -5.49453 7078 ft 239 kts 11°
2026-05-04 19:57 53.39477 -5.48869 7077 ft 239 kts
2026-05-04 19:57 53.41121 -5.48861 7075 ft 237 kts 349°
2026-05-04 19:57 53.42733 -5.49405 7080 ft 236 kts 346°
2026-05-04 19:58 53.44321 -5.49982 7081 ft 236 kts 346°
2026-05-04 19:58 53.45929 -5.50553 7080 ft 236 kts 347°
2026-05-04 19:58 53.47538 -5.51111 7080 ft 236 kts 347°
2026-05-04 19:58 53.49140 -5.51659 7080 ft 235 kts 347°
2026-05-04 19:59 53.50743 -5.52232 7079 ft 234 kts 343°
2026-05-04 19:59 53.52216 -5.53367 7078 ft 234 kts 325°
2026-05-04 19:59 53.53530 -5.54975 7083 ft 234 kts 322°
2026-05-04 19:59 53.54834 -5.56609 7082 ft 233 kts 323°
2026-05-04 20:00 53.56148 -5.58220 7081 ft 233 kts 323°
2026-05-04 20:00 53.57446 -5.59864 7079 ft 233 kts 317°
2026-05-04 20:00 53.58383 -5.62050 7074 ft 232 kts 291°
2026-05-04 20:00 53.58575 -5.64733 7049 ft 235 kts 263°
2026-05-04 20:01 53.57969 -5.67279 6784 ft 238 kts 234°
2026-05-04 20:01 53.56763 -5.69202 6469 ft 241 kts 220°
2026-05-04 20:01 53.55429 -5.70899 6177 ft 240 kts 220°
2026-05-04 20:01 53.54107 -5.72601 5883 ft 239 kts 221°
2026-05-04 20:02 53.52799 -5.74321 5596 ft 238 kts 221°
2026-05-04 20:02 53.51507 -5.76048 5308 ft 237 kts 221°
2026-05-04 20:02 53.50223 -5.77780 5001 ft 236 kts 222°
2026-05-04 20:02 53.48961 -5.79493 4707 ft 236 kts 221°
2026-05-04 20:03 53.47712 -5.81271 4418 ft 234 kts 226°
2026-05-04 20:03 53.46603 -5.83207 4188 ft 225 kts 230°
2026-05-04 20:03 53.45549 -5.85118 3921 ft 222 kts 230°
2026-05-04 20:03 53.44500 -5.87021 3640 ft 222 kts 230°
2026-05-04 20:04 53.43455 -5.88918 3373 ft 221 kts 230°
2026-05-04 20:04 53.42414 -5.90818 3097 ft 221 kts 230°
2026-05-04 20:04 53.41380 -5.92716 2969 ft 221 kts 230°
2026-05-04 20:04 53.40350 -5.94623 2966 ft 220 kts 233°
2026-05-04 20:05 53.39615 -5.96764 2925 ft 204 kts 255°
2026-05-04 20:05 53.39482 -5.99019 2735 ft 190 kts 273°
2026-05-04 20:05 53.39178 -6.01114 2863 ft 199 kts 239°
2026-05-04 20:05 53.38105 -6.02804 3053 ft 223 kts 208°
2026-05-04 20:06 53.36603 -6.03535 3293 ft 227 kts 190°
2026-05-04 20:06 53.35038 -6.03916 3541 ft 227 kts 187°
2026-05-04 20:06 53.33475 -6.03684 3784 ft 229 kts 159°
2026-05-04 20:06 53.32158 -6.02224 4034 ft 230 kts 133°
2026-05-04 20:07 53.31108 -6.00196 4294 ft 231 kts 128°
2026-05-04 20:07 53.30100 -5.98108 4535 ft 231 kts 128°
2026-05-04 20:07 53.29090 -5.95997 4786 ft 233 kts 128°
2026-05-04 20:07 53.28096 -5.93848 4985 ft 234 kts 120°
2026-05-04 20:08 53.27603 -5.91314 5014 ft 230 kts 90°
2026-05-04 20:08 53.27737 -5.88665 5013 ft 228 kts 73°
2026-05-04 20:08 53.28393 -5.86297 4914 ft 223 kts 49°
2026-05-04 20:08 53.29576 -5.84719 4662 ft 217 kts 19°
2026-05-04 20:09 53.31036 -5.84214 4345 ft 213 kts 360°
2026-05-04 20:09 53.32466 -5.84602 4017 ft 211 kts 343°
2026-05-04 20:09 53.33929 -5.85358 3686 ft 221 kts 342°
2026-05-04 20:09 53.35374 -5.86213 3349 ft 220 kts 336°
2026-05-04 20:10 53.36739 -5.87333 3042 ft 215 kts 329°
2026-05-04 20:10 53.37952 -5.88648 2973 ft 199 kts 327°
2026-05-04 20:10 53.39080 -5.89919 2970 ft 194 kts 327°
2026-05-04 20:10 53.40201 -5.91186 2983 ft 194 kts 327°
2026-05-04 20:11 53.41322 -5.92452 2994 ft 194 kts 327°
2026-05-04 20:11 53.42491 -5.93580 2994 ft 194 kts 338°
2026-05-04 20:11 53.43756 -5.94372 2992 ft 194 kts 340°
2026-05-04 20:11 53.45034 -5.95123 2991 ft 194 kts 340°
2026-05-04 20:12 53.46309 -5.95867 2989 ft 194 kts 341°
2026-05-04 20:12 53.47640 -5.96069 2990 ft 195 kts
2026-05-04 20:12 53.48968 -5.95547 2995 ft 197 kts 19°
2026-05-04 20:12 53.50184 -5.94567 2991 ft 198 kts 36°
2026-05-04 20:13 53.51009 -5.92719 2988 ft 203 kts 70°
2026-05-04 20:13 53.51105 -5.90354 2987 ft 208 kts 102°
2026-05-04 20:13 53.50454 -5.88189 2994 ft 209 kts 126°
2026-05-04 20:13 53.49462 -5.86564 2972 ft 196 kts 153°
2026-05-04 20:14 53.48174 -5.85904 2977 ft 195 kts 175°
2026-05-04 20:14 53.46829 -5.85982 2984 ft 194 kts 196°
2026-05-04 20:14 53.45535 -5.86617 2991 ft 193 kts 199°
2026-05-04 20:14 53.44252 -5.87310 3044 ft 194 kts 200°
2026-05-04 20:15 53.43017 -5.88209 3028 ft 193 kts 207°
2026-05-04 20:15 53.42216 -5.88868 3020 ft 193 kts 211°
2026-05-04 20:15 53.40854 -5.90736 2997 ft 190 kts 232°
2026-05-04 20:15 53.40067 -5.92506 2999 ft 189 kts 240°
2026-05-04 20:16 53.39711 -5.94563 2968 ft 182 kts 272°
2026-05-04 20:16 53.39799 -5.95932 2923 ft 168 kts 283°
2026-05-04 20:16 53.40048 -5.97760 2799 ft 161 kts 286°
2026-05-04 20:16 53.40307 -5.99571 2643 ft 159 kts 285°
2026-05-04 20:17 53.40565 -6.01381 2632 ft 160 kts 285°
2026-05-04 20:17 53.40819 -6.03194 2592 ft 160 kts 283°
2026-05-04 20:17 53.40967 -6.05039 2450 ft 159 kts 278°
2026-05-04 20:17 53.41085 -6.06885 2303 ft 159 kts 276°
2026-05-04 20:18 53.41168 -6.08732 2130 ft 159 kts 274°
2026-05-04 20:18 53.41244 -6.10574 1832 ft 158 kts 274°
2026-05-04 20:18 53.41326 -6.12414 1653 ft 159 kts 274°
2026-05-04 20:18 53.41444 -6.14260 1521 ft 159 kts 276°
2026-05-04 20:19 53.41563 -6.16041 1282 ft 141 kts 275°
2026-05-04 20:19 53.41637 -6.17609 981 ft 133 kts 272°
2026-05-04 20:19 53.41704 -6.19162 873 ft 134 kts 274°
2026-05-04 20:19 53.41798 -6.20717 742 ft 134 kts 274°
2026-05-04 20:20 53.41875 -6.22271 569 ft 134 kts 274°
2026-05-04 20:20 53.41961 -6.23820 391 ft 133 kts 275°
2026-05-04 20:20 53.42044 -6.25366 233 ft 132 kts 275°
2026-05-04 20:20 53.42119 -6.26732 216 ft 90 kts 275°
2026-05-04 20:21 53.42151 -6.27329 220 ft 30 kts 275°
2026-05-04 20:21 53.42166 -6.27599 214 ft 14 kts 275°
2026-05-04 20:21 53.42230 -6.27934 216 ft 8 kts 299°
2026-05-04 20:22 53.42261 -6.28024 217 ft 10 kts 301°
2026-05-04 20:22 53.42308 -6.28119 217 ft 12 kts 329°
2026-05-04 20:22 53.42362 -6.28042 216 ft 14 kts 92°
2026-05-04 20:22 53.42352 -6.27868 216 ft 16 kts 95°
2026-05-04 20:23 53.42341 -6.27670 216 ft 18 kts 95°
2026-05-04 20:23 53.42329 -6.27449 216 ft 20 kts 95°
2026-05-04 20:23 53.42318 -6.27225 216 ft 13 kts 95°
2026-05-04 20:23 53.42309 -6.27061 216 ft 15 kts 95°
2026-05-04 20:24 53.42297 -6.26871 216 ft 17 kts 96°
2026-05-04 20:24 53.42285 -6.26657 216 ft 19 kts 95°
2026-05-04 20:24 53.42272 -6.26421 216 ft 21 kts 95°
2026-05-04 20:24 53.42260 -6.26208 216 ft 18 kts 95°
2026-05-04 20:25 53.42259 -6.26052 216 ft 13 kts 81°
2026-05-04 20:25 53.42302 -6.25904 218 ft 15 kts 49°
2026-05-04 20:25 53.42381 -6.25763 221 ft 18 kts 46°
2026-05-04 20:25 53.42463 -6.25623 216 ft 16 kts 45°
2026-05-04 20:26 53.42541 -6.25490 216 ft 17 kts 46°
2026-05-04 20:26 53.42625 -6.25347 219 ft 16 kts 45°
2026-05-04 20:26 53.42694 -6.25231 218 ft 0 kts 45°
2026-05-04 20:26 53.42699 -6.25223 216 ft 5 kts 45°
2026-05-04 20:27 53.42750 -6.25135 216 ft 10 kts 46°
2026-05-04 20:27 53.42762 -6.25040 219 ft 10 kts 123°
2026-05-04 20:27 53.42697 -6.24963 223 ft 11 kts 149°
2026-05-04 20:27 53.42663 -6.24880 220 ft 11 kts 77°
2026-05-04 20:28 53.42687 -6.24812 216 ft 6 kts 53°
2026-05-04 20:28 53.42709 -6.24758 216 ft 4 kts 53°
2026-05-04 20:28 53.42738 -6.24742 216 ft 1 kts
2026-05-04 20:28 53.42756 -6.24741 216 ft 3 kts
2026-05-04 20:29 53.42765 -6.24740 216 ft 0 kts